User: anonymous
Location: Melbourne
(37.8170°S, 144.9670°E)
Time: 16:23:02
(UTC+10:00)
Language:

CZ-3 R/B - Orbit

View from above orbital plane
View from above orbital plane
View from above satellite
View from above satellite

Ground track
Ground track

The orbit data is extracted from the following two-line orbital elements,

1 29517U 06048B   14274.66557510  .00085470  00000-0  20833-2 0  4778
2 29517 028.4762 116.6115 5273644 131.1095 343.0472 05.28160117105388
Epoch (UTC): 01 October 2014 15:58:25
Eccentricity: 0.5273644
inclination: 28.4762°
perigee height: 205 km
apogee height: 14895 km
right ascension of ascending node: 116.6115°
argument of perigee: 131.1095°
revolutions per day: 5.28160117
mean anomaly at epoch: 343.0472°
orbit number at epoch: 10538

The dashed part of the orbit path shows where the satellite is in the earth's shadow,  

DLR